NOAA 16 DEB, 41054

Orbit data source: Space-Track

NOAA 16 DEB, 41054 is space debris in SSO originally from a launch on Thu, 21 Sep 2000 UTC launched from the Air Force Western Test Range (AFWTR). Debris objects in space refer to the collection of defunct objects orbiting the Earth. Examples of debris include non-operational satellites, rocket bodies, and fragments generated from explosions, collisions, or faulty payload assembly.

Loading next visibility...
Identifier
41054, 2000-055M
Orbit
SSO
Country
Flag of USUS
Related business
Manufacturer
Unknown
Mission
Spacecraft
Bus & Motor
Unknown
Mass
Unknown
Launch date (UTC)
2000-09-21 (26 years ago)
Launch vehicle
Unknown
Launch site
Air Force Western Test Range (AFWTR)
Object type
Payload
Rocket body
Debris
Shape & HBR
Unknown shape, 0.1 m
Radar Cross Section
Medium (>0.1 m² and <1 m²)

Expand to show TLE details & history
Last TLE update: 18 hours ago

TLE from 18 hours ago
0 NOAA 16 DEB
1 41054U 00055M   26177.92345596  .00000972  00000-0  35920-3 0  9990
2 41054  99.0033  65.2473 0065653 104.1168 256.7323 14.33617593551868
Epoch: 2026-06-26T22:09Z
TLE epoch observation values (Epoch: 2026-06-26T22:09:46.594Z)
Latitude
-0.00001°
Longitude
177.75816°
Altitude
793.667 km
Speed
7.451 km/s
True Right ascension
04h 20m 59s
True Declination
0° 00' 00"
Sunlit
Object was in daylight at epoch
Visualization orbit readout
Latitude
Unknown
Longitude
Unknown
Altitude
Unknown
Speed
Unknown
Apparent Right ascension
Unknown
Apparent Declination
Unknown
Sunlit
N/A
Visualization observer readout
Local Sidereal Time
03:13:38
Azimuth
Unknown
Elevation
Unknown
Doppler factor
Unknown
Orbital elements
Apogee altitude
823.793 km
Perigee altitude
729.844 km
Semi-major axis
7,154.956 km
Eccentricity
0.00657
Inclination
99.0033°
RAAN
65.2473°
Arg. of periapsis
104.1168°
True anomaly
256.00145°
Mean anomaly
256.7323°
Eccentric anomaly
256.36673°
Mean motion
3.58619 °/min
Orbital period
100.39 mins
BSTAR
0.0003592
Loading maneuver chart data...
Computing Atmospheric mass density...
Loading historical data...
Loading historical data...
Loading historical data...
Loading historical data...
Loading historical data...
Loading historical data...
Loading historical data...

Documentation

Showing up to 5 results
|